Location: Seattle
(47.6064°N, 122.3308°W)
Time: 05:46:30
(UTC-08:00)

S-56A Canister/Altair - Pass Details

Date: 01 December 2020
Orbit: 633 x 2499 km, 38.9° (Epoch: 23 January)

Event Time Altitude Azimuth Distance (km) Brightness Sun altitude
Rises 22:06:25 0° 267° (W) 5,148 12.1 -55.9°
Reaches altitude 10° 22:10:29 10° 261° (W) 3,843 11.3 -56.5°
Enters shadow 22:11:18 12° 260° (W) 3,581 11.1 -56.6°
Maximum altitude 22:19:02 40° 197° (SSW) 1,678 - -57.5°
Drops below altitude 10° 22:24:54 10° 129° (SE) 2,632 - -58.2°
Sets 22:27:12 0° 121° (ESE) 3,395 - -58.5°
